カタログに戻る

THOR ABLESTAR DEB

運用中LEO
NORAD 403·DEBRIS·🇺🇸 United States

打ち上げ Jun 29, 1961 から Cape Canaveral Space Force Station

Loading…

次のパス (今後24時間)

TLE

最新Source: Space-Track

元期: Sep 14, 2026, 21:57 UTC

1 00403U 61015EC  26257.91510568 -.00000020  00000-0  50984-4 0  9990
2 00403  66.8401  71.0418 0015880 127.2486 306.7409 13.81247824283548

AllMySatでTHOR ABLESTAR DEBをリアルタイム追跡

Download on the App Store